Location: Bogotá
(4.6533°N, 74.0837°W)
Time: 12:28:06
(UTC+00:00)

ISS - Pass Details

Date: 08 March 2026
Orbit: 416 x 427 km, 51.6° (Epoch: 6 March)

Event Time Altitude Azimuth Distance (km) Brightness Sun altitude
Rises 23:54:28 0° 246° (WSW) 2,373 1.5 -12.2°
Reaches altitude 10° 23:57:13 10° 270° (W) 1,506 0.6 -12.9°
Maximum altitude 23:59:16 15° 307° (NW) 1,229 -0.7 -13.4°
Drops below altitude 10° 00:01:20 10° 345° (NNW) 1,502 -0.8 -13.9°
Sets 00:04:05 0° 9° (N) 2,363 -0.1 -14.6°
